User: anonymous   Login
Location: Caltech
(34.1382°N, 118.1253°W)
Time: 02:51:22
(UTC-07:00)
Language:

NOSS 3-4 (C) - Orbit

View from above orbital plane
View from above orbital plane
View from above satellite
View from above satellite

Ground track
Ground track

The orbit data is extracted from the following two-line orbital elements,

1 31708U 07027C   16235.82156783 0.00000000  00000-0  00000-0 0    05
2 31708  63.4030 124.1493 0164000  25.7439 334.2560 13.40708973    07
Epoch (UTC): 22 August 2016 19:43:03
Eccentricity: 0.0164000
inclination: 63.4030°
perigee height: 984 km
apogee height: 1229 km
right ascension of ascending node: 124.1493°
argument of perigee: 25.7439°
revolutions per day: 13.40708973
mean anomaly at epoch: 334.2560°
orbit number at epoch: 0

The dashed part of the orbit path shows where the satellite is in the earth's shadow,  

DLR